Regional Weather Roundup
Issued by NWS Upton, NY

Current Version | Previous Version | Text Only | Print | Product List | Glossary Off
Versions: 1 2 3 4 5 6 7 8 9 10 11 12 13 14 15 16 17 18 19 20 21 22 23 24 25 26 27 28 29 30 31 32 33 34 35 36 37 38 39 40 41 42 43 44 45 46 47 48 49 50
000 ASUS41 KOKX 200414 RWROKX Regional Weather Roundup National Weather Service New York NY 1100 PM EST SUN JAN 19 2020 Note: "FAIR" indicates few or no clouds below 12,000 feet with no significant weather and/or obstructions to visibility. NYZ071-072-176-178-NJZ106-104-200500- New York City Metro Area CITY SKY/WX TMP DP RH WIND PRES REMARKS Central Park CLOUDY 31 15 52 NW12G24 30.00R WCI 22 Bronx Lehman C N/A 32 18 55 NW10G22 N/A WCI 24 LaGuardia Arpt MOCLDY 32 17 54 NW30 29.98R WCI 18 Queens College N/A 32 18 55 NW20 N/A WCI 20 Kennedy Intl FAIR 31 16 54 NW17 29.98R WCI 19 Breezy Point N/A 32 N/A N/A NW14G21 N/A WCI 22 Brooklyn Coll N/A 32 16 51 W16 N/A WCI 21 Staten Island N/A 32 16 51 NW12 N/A WCI 23 Newark/Liberty CLOUDY 31 14 49 NW14 30.00R WCI 21 Teterboro CLOUDY 31 18 58 NW10G17 29.99R WCI 22 $$ NYZ177-179-078>081-200500- Long Island New York CITY SKY/WX TMP DP RH WIND PRES REMARKS Jones Beach N/A 32 N/A N/A NW21G28 N/A WCI 20 Wantagh N/A 32 18 55 NW9 N/A WCI 24 Hempstead N/A 32 19 59 NW12 30.00 WCI 23 Matinecock Pt N/A 32 N/A N/A NW37 N/A WCI 16 Farmingdale MOCLDY 33 15 47 NW12G18 29.95R WCI 24 MacArthur/ISP MOCLDY 32 18 56 NW14 29.93R WCI 22 Stony Brook N/A 32 21 64 NW12 N/A WCI 23 Shirley FAIR 33 17 51 NW12G20 29.93R WCI 24 Mt Sinai Harb N/A N/A N/A N/A NW13G20 N/A Westhampton FAIR 32 17 54 NW17G25 29.91R WCI 21 East Hampton FAIR 33 20 60 NW14 29.89R WCI 23 Southold N/A 32 25 74 N16 N/A WCI 21 Montauk N/A 35 23 61 NW14G25 29.89R WCI 26 $$ NYZ052-065-067-200500- Hudson Valley CITY SKY/WX TMP DP RH WIND PRES REMARKS White Plains FAIR 27 11 51 W15G24 29.94R WCI 15 Larchmont Harb N/A N/A N/A N/A W26G37 N/A Croton On Huds N/A N/A N/A N/A NW24G32 N/A Somers N/A 27 12 54 NW10 N/A WCI 17 Brewster N/A 27 18 69 N10 N/A WCI 17 Newburgh MOCLDY 25 12 58 NW16G25 29.97R WCI 12 Montgomery MOCLDY 23 9 55 NW12G22 29.99R WCI 12 Otisville N/A 23 10 58 NW5 N/A WCI 17 Warwick N/A 25 10 54 NW10 N/A WCI 15 Suffern N/A 25 10 54 NW10 N/A WCI 15 Poughkeepsie MOCLDY 26 8 46 NW12G20 29.98R WCI 16 Albany LGT SNOW 18 9 68 NW14 30.03R WCI 4 $$ NJZ001-105-106-008-010-013-015-019>022-104-200500- New Jersey CITY SKY/WX TMP DP RH WIND PRES REMARKS Newark/Liberty CLOUDY 31 14 49 NW14 30.00R WCI 21 Teterboro CLOUDY 31 18 58 NW10G17 29.99R WCI 22 Caldwell CLOUDY 30 15 53 NW16G22 30.00R WCI 19 Somerville CLOUDY 29 14 53 VRB3 30.01R Linden MOCLDY 31 15 51 CALM 30.01R Perth Amboy N/A N/A N/A N/A W15 N/A Sussex FAIR 24 8 50 NW12G23 30.01R WCI 13 Andover N/A 26 13 57 N10G17 30.00R WCI 16 Trenton FAIR 26 13 57 W9G21 30.02R WCI 17 Millville FAIR 28 12 51 NW12G23 30.07R WCI 18 Atlantic City NOT AVBL Wrightstown CLEAR 27 13 56 NW9 30.02S WCI 18 Toms River FAIR 27 17 66 W12G23 30.03R WCI 17 Belmar FAIR 28 16 60 W14 30.01R WCI 17 $$ PAZ047>061-062-071-200500- Eastern Pennsylvania CITY SKY/WX TMP DP RH WIND PRES REMARKS Philadelphia FAIR 28 11 48 NW13G21 30.08R WCI 17 Allentown CLOUDY 26 12 55 W10 30.04R WCI 16 Scranton CLOUDY 21 9 59 N15G31 30.05R WCI 8 $$ CTZ002-004>006-009-010-012-RIZ004-006-007-MAZ004-011-015-200500- Southern New England In CT CITY SKY/WX TMP DP RH WIND PRES REMARKS Bradley Intl CLOUDY 24 10 55 NW20G25 29.94R WCI 10 Hartford FAIR 26 10 50 NW15G23 29.96R WCI 14 Danbury CLOUDY 27 11 51 NW7 29.94R WCI 19 Wtrbury/Oxford MOCLDY 24 15 68 NW13G23 29.91R WCI 12 Norwalk Harbor N/A N/A N/A N/A W18G24 N/A Bridgeport FAIR 32 13 45 NW17G32 29.93R WCI 21 Meriden FAIR 27 14 58 NW10G22 29.94R WCI 17 New Haven FLURRIES 31 20 63 NW13G22 29.93R WCI 21 Chester FAIR 28 16 59 NW15G23 29.89R WCI 17 Groton FAIR 30 16 56 NW15G23 29.90R WCI 19 Willimantic CLOUDY 26 12 55 NW13G23 29.91R WCI 15 In RI CITY SKY/WX TMP DP RH WIND PRES REMARKS Providence MOCLDY 29 13 51 NW16G24 29.88R WCI 17 Block Island MOCLDY 31 20 63 NW17G25 29.88R WCI 19 Westerly FAIR 32 15 49 NW13G22 29.90R WCI 22 In MA CITY SKY/WX TMP DP RH WIND PRES REMARKS Boston CLOUDY 28 11 48 NW15G24 29.89R WCI 16 Worcester CLOUDY 20 10 65 NW13G28 29.84R WCI 7 Westfield CLOUDY 23 11 60 NW14 29.93R WCI 11 Provincetown CLOUDY 31 21 66 NW25G33 29.85R WCI 17 Nantucket CLOUDY 35 17 47 NW21G31 29.82R WCI 24 $$ ANZ330-335-338-340-345-350-353-355-200500- Coastal Marine Observations STATION/POSITION TIME SKY/WX TEMP WIND PRES VSBY WAVE AIR SEA DIR/SP/G HT/PER (UTC) (F) (DEG/KT/KT) (MB) (MI) (FT/S) NY Harb Entrance 0350 34 290/ 23/ 27 1015.1 4/ 4 20 S Fire Island 0350 37 45 1013.3 7/ 6 Great South Bay NOT AVBL 23 SSW Montauk P NOT AVBL 15 E Barnegat Li 0400 46 N/A 7/ 5 Hudson Canyon 0350 39 49 320/ 25/ 31 1013.9 11/ 7 Kings Point 0324 33 39 360/ 15/ 19 1015.3 Execution Rocks 0330 33 32 290/ 16/ 23 N/A Western LI Sound 0300 34 290/ 16/ 21 N/A 1/ 3 Central LI Sound NOT AVBL Robbins Reef 0324 32 310/ 18/ 21 1014.9 $$ >>>>>>>>>>>>>>>>>>>>>>>>>>>> KEY <<<<<<<<<<<<<<<<<<<<<<<<<<< > < > SKY/WX - Sky Condition/Present Weather < > TMP - Temperature in Fahrenheit < > DP - Dew Point in Fahrenheit < > RH - Relative Humidity in Percent < > WIND - Direction (from) and Speed in MPH < > PRES - Mean Sea Level Pressure (inches of Hg) < > WCI - Wind Chill Index < > VSB - Visibility in Miles < > HX - Heat Index < > TC - Temperature in Celsius < > VRB - Variable Wind Direction < > < >>>>>>>>>>>>>>>>>>>>>>>>>>>> KEY <<<<<<<<<<<<<<<<<<<<<<<<<<<

USA.gov is the U.S. government's official web portal to all federal, state and local government web resources and services.